Location: Goettingen
(51.5300°N, 9.9433°E)
Time: 07:03:07
(UTC+02:00)

ISS - Pass Details

Date: 08 May 2021
Orbit: 417 x 422 km, 51.6° (Epoch: 18 May)

Event Time Altitude Azimuth Distance (km) Brightness Sun altitude
Exits shadow 02:49:24 61° 163° (SSE) 481 -3.8 -18.4°
Maximum altitude 02:49:25 61° 162° (SSE) 481 -3.8 -18.4°
Drops below altitude 10° 02:52:46 10° 81° (E) 1,507 -0.5 -18.2°
Sets 02:54:53 0° 78° (ENE) 2,374 0.6 -18.1°
